Location: Rounton
(54.4000°N, 1.3500°W)
Time: 13:22:54
(UTC+00:00)

Vanguard 2 - Pass Details

Date: 01 December 2021
Orbit: 553 x 2936 km, 32.9° (Epoch: 23 January)

Event Time Altitude Azimuth Distance (km) Brightness Sun altitude
Rises 15:15:52 0° 218° (SW) 3,455 13.5 2.4°
Reaches altitude 10° 15:19:33 10° 192° (SSW) 2,882 11.5 2.0°
Maximum altitude 15:22:55 14° 164° (SSE) 2,943 10.9 1.6°
Drops below altitude 10° 15:27:02 10° 136° (SE) 3,665 11.0 1.2°
Sets 15:33:01 0° 116° (ESE) 5,249 11.6 0.5°
